TimeMST,TemperatureF,Dew PointF,Humidity,Sea Level PressureIn,VisibilityMPH,Wind Direction,Wind SpeedMPH,Gust SpeedMPH,PrecipitationIn,Events,Conditions,WindDirDegrees,DateUTC
12:53 AM,23.0,12.0,63,30.26,10.0,West,9.2,-,N/A,,Clear,260,2014-01-17 07:53:00
1:53 AM,25.0,16.0,69,30.25,10.0,WNW,10.4,-,N/A,,Clear,290,2014-01-17 08:53:00
2:53 AM,26.1,16.0,66,30.24,10.0,West,13.8,-,N/A,,Clear,280,2014-01-17 09:53:00
3:53 AM,26.1,17.1,69,30.22,10.0,West,11.5,-,N/A,,Scattered Clouds,270,2014-01-17 10:53:00
4:53 AM,24.1,16.0,71,30.22,10.0,West,12.7,-,N/A,,Clear,270,2014-01-17 11:53:00
5:53 AM,23.0,16.0,74,30.22,10.0,West,15.0,-,N/A,,Clear,270,2014-01-17 12:53:00
6:53 AM,21.0,15.1,78,30.23,10.0,West,12.7,-,N/A,,Clear,260,2014-01-17 13:53:00
7:53 AM,21.9,16.0,78,30.24,10.0,West,15.0,-,N/A,,Clear,260,2014-01-17 14:53:00
8:53 AM,28.0,18.0,66,30.24,10.0,West,12.7,-,N/A,,Partly Cloudy,260,2014-01-17 15:53:00
9:53 AM,37.0,18.0,46,30.20,10.0,West,13.8,-,N/A,,Clear,270,2014-01-17 16:53:00
10:53 AM,42.1,16.0,35,30.16,10.0,West,17.3,-,N/A,,Scattered Clouds,270,2014-01-17 17:53:00
11:53 AM,46.0,16.0,30,30.09,10.0,West,11.5,-,N/A,,Clear,280,2014-01-17 18:53:00
12:53 PM,48.9,12.9,24,30.06,10.0,NW,18.4,31.1,N/A,,Clear,310,2014-01-17 19:53:00
1:53 PM,50.0,16.0,26,30.04,10.0,West,15.0,-,N/A,,Clear,280,2014-01-17 20:53:00
2:53 PM,50.0,15.1,25,30.05,10.0,NW,10.4,-,N/A,,Clear,310,2014-01-17 21:53:00
3:53 PM,46.0,14.0,28,30.05,10.0,WNW,6.9,-,N/A,,Clear,300,2014-01-17 22:53:00
4:53 PM,43.0,12.9,30,30.08,10.0,NW,5.8,-,N/A,,Clear,320,2014-01-17 23:53:00
5:53 PM,37.0,12.9,37,30.10,10.0,West,5.8,-,N/A,,Clear,270,2014-01-18 00:53:00
6:53 PM,37.9,15.1,39,30.10,10.0,West,4.6,-,N/A,,Clear,270,2014-01-18 01:53:00
7:53 PM,30.9,16.0,54,30.12,10.0,West,11.5,-,N/A,,Clear,260,2014-01-18 02:53:00
8:53 PM,28.0,15.1,58,30.12,10.0,West,10.4,-,N/A,,Clear,260,2014-01-18 03:53:00
9:53 PM,30.0,17.1,59,30.09,10.0,West,10.4,-,N/A,,Clear,270,2014-01-18 04:53:00
10:53 PM,30.0,16.0,56,30.08,10.0,WNW,11.5,-,N/A,,Clear,290,2014-01-18 05:53:00
11:53 PM,32.0,15.1,50,30.06,10.0,WNW,12.7,-,N/A,,Clear,290,2014-01-18 06:53:00